GFSFLT1_prec_precacc12_045.txt.gz
Total_Precipitation_Accumulation
0.00 0.00 0.00 0.00 0.00 0.00 0.00 0.00 0.00 0.00 0.00 0.00 0.00 0.01 0.03 0.02 0.01 0.01 0.00 0.00 0.00 0.00 0.00 0.00 0.00 0.00 0.00 0.00 0.00 0.00 0.00 0.00
0.00 0.00 0.00 0.00 0.00 0.00 0.00 0.00 0.00 0.00 0.00 0.00 0.00 0.00 0.01 0.00 0.00 0.00 0.00 0.00 0.00 0.00 0.00 0.00 0.00 0.00 0.00 0.00 0.00 0.00 0.00 0.00
0.00 0.00 0.00 0.00 0.00 0.00 0.02 0.01 0.00 0.00 0.00 0.00 0.00 0.00 0.00 0.00 0.00 0.00 0.00 0.00 0.00 0.00 0.00 0.00 0.00 0.00 0.00 0.00 0.00 0.00 0.00 0.00
0.00 0.00 0.00 0.00 0.00 0.00 0.01 0.04 0.02 0.01 0.00 0.00 0.00 0.00 0.00 0.00 0.00 0.00 0.00 0.00 0.00 0.00 0.00 0.00 0.00 0.00 0.00 0.00 0.00 0.00 0.00 0.00
0.00 0.00 0.00 0.00 0.01 0.02 0.03 0.06 0.07 0.02 0.00 0.00 0.00 0.00 0.00 0.02 0.05 0.02 0.01 0.00 0.00 0.00 0.00 0.00 0.00 0.00 0.00 0.00 0.00 0.00 0.00 0.00
0.01 0.01 0.02 0.04 0.04 0.05 0.06 0.09 0.12 0.03 0.01 0.00 0.01 0.01 0.01 0.03 0.04 0.02 0.00 0.00 0.00 0.00 0.00 0.00 0.00 0.00 0.00 0.00 0.00 0.00 0.00 0.00
0.03 0.04 0.06 0.04 0.06 0.19 0.10 0.10 0.08 0.06 0.04 0.01 0.04 0.07 0.06 0.04 0.05 0.02 0.01 0.00 0.00 0.00 0.00 0.00 0.00 0.00 0.00 0.00 0.00 0.01 0.00 0.00
0.01 0.02 0.05 0.04 0.08 0.20 0.10 0.04 0.06 0.04 0.03 0.04 0.05 0.11 0.07 0.07 0.05 0.04 0.04 0.02 0.01 0.00 0.00 0.00 0.00 0.01 0.02 0.06 0.06 0.02 0.00 0.00
0.01 0.02 0.05 0.07 0.17 0.18 0.08 0.03 0.06 0.06 0.08 0.05 0.03 0.06 0.09 0.12 0.10 0.08 0.05 0.03 0.02 0.01 0.00 0.00 0.03 0.07 0.08 0.04 0.00 0.00 0.00 0.00
0.00 0.01 0.00 0.02 0.23 0.16 0.04 0.02 0.01 0.03 0.10 0.05 0.02 0.05 0.11 0.26 0.16 0.09 0.05 0.03 0.02 0.01 0.02 0.05 0.06 0.02 0.00 0.00 0.00 0.00 0.00 0.00
0.00 0.00 0.00 0.01 0.06 0.03 0.01 0.00 0.01 0.00 0.01 0.07 0.08 0.12 0.14 0.16 0.16 0.12 0.09 0.04 0.02 0.02 0.02 0.01 0.00 0.00 0.00 0.00 0.00 0.00 0.00 0.00
0.00 0.00 0.00 0.00 0.00 0.00 0.00 0.00 0.01 0.01 0.01 0.03 0.07 0.12 0.17 0.22 0.19 0.13 0.06 0.03 0.01 0.00 0.00 0.00 0.00 0.00 0.00 0.00 0.00 0.00 0.00 0.00
0.00 0.00 0.00 0.00 0.00 0.00 0.01 0.01 0.03 0.05 0.09 0.12 0.19 0.20 0.20 0.16 0.12 0.08 0.04 0.02 0.01 0.01 0.01 0.01 0.01 0.01 0.00 0.00 0.01 0.01 0.00 0.00
0.00 0.00 0.00 0.00 0.00 0.00 0.04 0.05 0.06 0.15 0.16 0.14 0.14 0.12 0.10 0.10 0.09 0.06 0.03 0.02 0.02 0.02 0.01 0.01 0.02 0.01 0.00 0.02 0.01 0.00 0.00 0.00
0.00 0.01 0.00 0.00 0.01 0.06 0.08 0.09 0.13 0.20 0.16 0.11 0.10 0.10 0.11 0.07 0.04 0.02 0.01 0.01 0.01 0.01 0.02 0.01 0.01 0.04 0.03 0.00 0.00 0.00 0.00 0.00
0.01 0.00 0.00 0.01 0.04 0.09 0.09 0.10 0.10 0.09 0.09 0.09 0.07 0.04 0.02 0.01 0.01 0.01 0.01 0.01 0.01 0.00 0.02 0.08 0.10 0.07 0.04 0.02 0.00 0.00 0.00 0.00
0.00 0.00 0.00 0.00 0.01 0.01 0.02 0.04 0.04 0.04 0.04 0.04 0.03 0.02 0.01 0.01 0.01 0.01 0.01 0.02 0.03 0.06 0.16 0.18 0.12 0.08 0.05 0.01 0.00 0.00 0.00 0.00
0.00 0.00 0.00 0.00 0.00 0.00 0.01 0.01 0.01 0.02 0.03 0.04 0.03 0.01 0.01 0.00 0.00 0.00 0.00 0.05 0.21 0.31 0.23 0.14 0.08 0.04 0.01 0.00 0.00 0.00 0.00 0.00
0.00 0.00 0.00 0.00 0.00 0.00 0.01 0.02 0.02 0.02 0.02 0.02 0.01 0.00 0.00 0.00 0.00 0.02 0.14 0.31 0.31 0.20 0.11 0.03 0.00 0.00 0.00 0.00 0.00 0.00 0.00 0.00

GFSFLT1_prec_precacc12_048.txt.gz
Total_Precipitation_Accumulation
0.00 0.00 0.00 0.00 0.00 0.00 0.00 0.00 0.00 0.01 0.00 0.00 0.00 0.01 0.03 0.02 0.02 0.01 0.01 0.02 0.01 0.00 0.00 0.00 0.00 0.00 0.00 0.00 0.00 0.00 0.00 0.00
0.00 0.00 0.00 0.00 0.00 0.00 0.00 0.00 0.00 0.03 0.00 0.00 0.00 0.00 0.01 0.00 0.01 0.00 0.00 0.01 0.00 0.00 0.00 0.00 0.00 0.00 0.00 0.00 0.00 0.00 0.00 0.00
0.00 0.00 0.00 0.00 0.00 0.00 0.01 0.00 0.00 0.00 0.00 0.00 0.00 0.00 0.00 0.00 0.00 0.00 0.00 0.00 0.00 0.00 0.00 0.00 0.00 0.00 0.00 0.00 0.00 0.00 0.00 0.00
0.00 0.00 0.00 0.00 0.00 0.00 0.00 0.02 0.01 0.00 0.00 0.00 0.00 0.00 0.00 0.00 0.01 0.02 0.01 0.00 0.00 0.00 0.00 0.00 0.00 0.00 0.00 0.00 0.00 0.00 0.00 0.00
0.00 0.00 0.00 0.00 0.00 0.00 0.00 0.02 0.05 0.01 0.00 0.00 0.00 0.00 0.00 0.02 0.06 0.03 0.02 0.00 0.00 0.00 0.00 0.00 0.00 0.00 0.00 0.00 0.00 0.00 0.00 0.00
0.01 0.01 0.01 0.01 0.00 0.00 0.01 0.06 0.10 0.03 0.01 0.00 0.01 0.01 0.01 0.03 0.04 0.04 0.02 0.01 0.00 0.00 0.00 0.00 0.00 0.00 0.00 0.00 0.00 0.00 0.00 0.00
0.03 0.03 0.05 0.02 0.01 0.05 0.03 0.08 0.07 0.06 0.04 0.01 0.04 0.07 0.06 0.04 0.05 0.03 0.02 0.02 0.01 0.00 0.00 0.00 0.00 0.00 0.00 0.00 0.00 0.01 0.01 0.00
0.01 0.01 0.05 0.04 0.05 0.13 0.06 0.03 0.06 0.04 0.03 0.06 0.10 0.15 0.10 0.08 0.06 0.05 0.05 0.03 0.02 0.02 0.01 0.00 0.01 0.01 0.02 0.06 0.06 0.04 0.01 0.00
0.00 0.01 0.05 0.07 0.13 0.16 0.07 0.03 0.06 0.06 0.09 0.06 0.08 0.14 0.12 0.13 0.11 0.08 0.06 0.04 0.03 0.02 0.01 0.01 0.04 0.07 0.08 0.04 0.00 0.00 0.00 0.00
0.00 0.00 0.00 0.02 0.20 0.17 0.04 0.02 0.01 0.03 0.12 0.11 0.06 0.15 0.16 0.28 0.17 0.09 0.07 0.07 0.06 0.04 0.03 0.05 0.06 0.02 0.00 0.00 0.01 0.01 0.00 0.00
0.00 0.00 0.00 0.01 0.06 0.05 0.01 0.00 0.01 0.00 0.01 0.07 0.08 0.12 0.15 0.17 0.18 0.14 0.15 0.10 0.06 0.04 0.03 0.01 0.00 0.00 0.00 0.00 0.00 0.02 0.02 0.01
0.00 0.00 0.00 0.00 0.00 0.00 0.00 0.00 0.01 0.01 0.01 0.03 0.07 0.13 0.18 0.23 0.23 0.18 0.12 0.07 0.04 0.02 0.01 0.00 0.00 0.01 0.01 0.03 0.05 0.03 0.02 0.03
0.00 0.00 0.00 0.00 0.00 0.00 0.01 0.01 0.03 0.05 0.09 0.12 0.19 0.20 0.21 0.17 0.16 0.13 0.10 0.07 0.04 0.02 0.03 0.04 0.04 0.02 0.04 0.07 0.07 0.06 0.05 0.01
0.00 0.00 0.00 0.00 0.00 0.00 0.04 0.05 0.06 0.15 0.16 0.14 0.14 0.13 0.11 0.14 0.14 0.12 0.09 0.07 0.04 0.04 0.04 0.03 0.04 0.06 0.07 0.07 0.06 0.03 0.01 0.00
0.00 0.01 0.00 0.00 0.01 0.06 0.08 0.08 0.12 0.20 0.17 0.12 0.10 0.11 0.13 0.10 0.07 0.05 0.03 0.03 0.01 0.02 0.02 0.03 0.03 0.07 0.07 0.06 0.04 0.02 0.01 0.00
0.00 0.00 0.00 0.01 0.04 0.09 0.09 0.11 0.11 0.09 0.11 0.11 0.08 0.04 0.02 0.01 0.01 0.01 0.01 0.01 0.01 0.01 0.04 0.10 0.14 0.09 0.08 0.07 0.04 0.02 0.01 0.00
0.00 0.00 0.00 0.00 0.01 0.01 0.03 0.04 0.03 0.03 0.03 0.03 0.02 0.02 0.01 0.01 0.00 0.00 0.01 0.02 0.03 0.07 0.17 0.19 0.15 0.12 0.11 0.06 0.03 0.02 0.00 0.00
0.00 0.00 0.00 0.00 0.00 0.00 0.00 0.00 0.00 0.01 0.02 0.03 0.02 0.01 0.01 0.00 0.00 0.00 0.00 0.05 0.22 0.31 0.25 0.18 0.11 0.06 0.03 0.01 0.00 0.00 0.00 0.00
0.00 0.00 0.00 0.00 0.00 0.00 0.00 0.00 0.00 0.00 0.01 0.01 0.01 0.00 0.00 0.00 0.00 0.02 0.13 0.31 0.33 0.23 0.12 0.04 0.00 0.00 0.00 0.00 0.00 0.00 0.00 0.00

GFSFLT1_prec_precacc12_051.txt.gz
Total_Precipitation_Accumulation
0.00 0.00 0.00 0.00 0.00 0.00 0.00 0.00 0.02 0.04 0.02 0.00 0.00 0.01 0.03 0.03 0.06 0.03 0.04 0.04 0.01 0.00 0.00 0.00 0.00 0.00 0.00 0.00 0.00 0.00 0.00 0.00
0.00 0.00 0.00 0.00 0.00 0.00 0.00 0.00 0.01 0.08 0.01 0.00 0.00 0.00 0.01 0.01 0.04 0.01 0.02 0.02 0.00 0.00 0.00 0.00 0.00 0.00 0.00 0.00 0.00 0.00 0.00 0.00
0.00 0.00 0.00 0.00 0.00 0.00 0.00 0.00 0.01 0.06 0.02 0.00 0.00 0.00 0.00 0.00 0.01 0.02 0.02 0.03 0.00 0.00 0.00 0.00 0.00 0.00 0.00 0.00 0.00 0.00 0.00 0.00
0.00 0.00 0.00 0.00 0.00 0.00 0.00 0.00 0.00 0.02 0.00 0.00 0.00 0.00 0.00 0.00 0.01 0.03 0.03 0.01 0.00 0.00 0.00 0.00 0.00 0.00 0.00 0.00 0.00 0.00 0.00 0.00
0.00 0.00 0.00 0.00 0.00 0.00 0.00 0.00 0.00 0.00 0.00 0.00 0.00 0.00 0.00 0.02 0.06 0.03 0.03 0.03 0.02 0.00 0.00 0.00 0.00 0.00 0.00 0.00 0.00 0.00 0.00 0.00
0.00 0.00 0.00 0.00 0.00 0.00 0.00 0.00 0.02 0.01 0.00 0.00 0.00 0.01 0.01 0.03 0.04 0.05 0.03 0.01 0.01 0.01 0.01 0.01 0.00 0.00 0.00 0.00 0.00 0.00 0.00 0.00
0.00 0.00 0.00 0.00 0.00 0.00 0.00 0.01 0.02 0.05 0.02 0.01 0.02 0.06 0.06 0.04 0.05 0.04 0.03 0.02 0.01 0.01 0.02 0.01 0.01 0.00 0.00 0.00 0.00 0.01 0.01 0.00
0.00 0.00 0.00 0.00 0.00 0.00 0.00 0.00 0.02 0.01 0.02 0.05 0.09 0.12 0.07 0.05 0.05 0.05 0.05 0.03 0.03 0.03 0.03 0.02 0.01 0.01 0.02 0.06 0.06 0.04 0.01 0.00
0.00 0.00 0.02 0.02 0.01 0.00 0.00 0.01 0.04 0.04 0.12 0.16 0.14 0.14 0.09 0.09 0.10 0.08 0.06 0.05 0.04 0.03 0.02 0.02 0.04 0.07 0.08 0.04 0.01 0.01 0.00 0.00
0.00 0.00 0.00 0.01 0.07 0.04 0.01 0.01 0.00 0.02 0.14 0.22 0.13 0.20 0.15 0.22 0.16 0.09 0.09 0.12 0.08 0.05 0.05 0.06 0.06 0.02 0.01 0.02 0.03 0.01 0.00 0.01
0.00 0.00 0.00 0.01 0.03 0.03 0.01 0.00 0.01 0.00 0.01 0.07 0.07 0.10 0.15 0.17 0.18 0.18 0.22 0.16 0.09 0.06 0.04 0.02 0.01 0.01 0.01 0.00 0.00 0.02 0.06 0.05
0.00 0.00 0.00 0.00 0.00 0.00 0.00 0.00 0.01 0.01 0.01 0.02 0.06 0.13 0.17 0.23 0.23 0.23 0.16 0.09 0.06 0.03 0.02 0.02 0.01 0.01 0.02 0.05 0.08 0.06 0.06 0.10
0.00 0.00 0.00 0.00 0.00 0.00 0.01 0.01 0.03 0.05 0.08 0.11 0.18 0.20 0.20 0.18 0.16 0.14 0.10 0.08 0.05 0.03 0.05 0.08 0.10 0.13 0.18 0.19 0.12 0.10 0.11 0.09
0.00 0.00 0.00 0.00 0.00 0.00 0.04 0.05 0.06 0.12 0.14 0.11 0.13 0.14 0.11 0.14 0.15 0.13 0.10 0.08 0.07 0.06 0.06 0.09 0.15 0.15 0.10 0.09 0.09 0.10 0.10 0.05
0.00 0.00 0.00 0.00 0.01 0.05 0.06 0.06 0.06 0.14 0.14 0.11 0.10 0.11 0.14 0.11 0.08 0.05 0.03 0.02 0.01 0.02 0.03 0.03 0.04 0.08 0.10 0.11 0.12 0.11 0.05 0.02
0.00 0.00 0.00 0.01 0.04 0.06 0.05 0.05 0.07 0.09 0.12 0.12 0.08 0.05 0.03 0.02 0.01 0.01 0.00 0.00 0.00 0.01 0.04 0.10 0.14 0.12 0.10 0.09 0.05 0.02 0.01 0.01
0.00 0.00 0.00 0.00 0.00 0.02 0.03 0.03 0.03 0.02 0.02 0.01 0.01 0.01 0.00 0.00 0.00 0.00 0.00 0.01 0.03 0.06 0.15 0.18 0.15 0.12 0.11 0.07 0.04 0.02 0.01 0.00
0.00 0.00 0.00 0.00 0.00 0.01 0.00 0.01 0.00 0.00 0.00 0.01 0.01 0.00 0.00 0.00 0.00 0.00 0.00 0.04 0.16 0.25 0.23 0.18 0.11 0.06 0.05 0.01 0.01 0.00 0.00 0.00
0.00 0.00 0.00 0.00 0.00 0.00 0.00 0.00 0.00 0.00 0.00 0.00 0.00 0.00 0.00 0.00 0.00 0.01 0.06 0.19 0.27 0.22 0.12 0.04 0.00 0.00 0.00 0.00 0.00 0.00 0.00 0.00

GFSFLT1_prec_precacc12_054.txt.gz
Total_Precipitation_Accumulation
0.00 0.00 0.00 0.00 0.00 0.00 0.00 0.00 0.02 0.04 0.04 0.00 0.00 0.01 0.00 0.03 0.06 0.03 0.08 0.10 0.08 0.06 0.04 0.01 0.00 0.00 0.00 0.00 0.00 0.00 0.00 0.00
0.00 0.00 0.00 0.00 0.00 0.00 0.00 0.00 0.01 0.08 0.02 0.00 0.00 0.00 0.01 0.01 0.04 0.01 0.04 0.07 0.04 0.06 0.06 0.01 0.00 0.00 0.00 0.00 0.00 0.00 0.00 0.00
0.00 0.00 0.00 0.00 0.00 0.00 0.00 0.00 0.01 0.07 0.03 0.00 0.00 0.00 0.00 0.00 0.01 0.02 0.05 0.10 0.03 0.01 0.02 0.01 0.01 0.00 0.00 0.00 0.00 0.00 0.00 0.00
0.00 0.00 0.00 0.00 0.00 0.00 0.00 0.00 0.00 0.03 0.00 0.00 0.00 0.00 0.00 0.00 0.01 0.03 0.04 0.04 0.03 0.00 0.00 0.00 0.00 0.00 0.00 0.00 0.00 0.00 0.00 0.00
0.00 0.00 0.00 0.00 0.00 0.00 0.00 0.00 0.00 0.00 0.00 0.00 0.00 0.00 0.00 0.02 0.06 0.03 0.03 0.03 0.04 0.01 0.00 0.00 0.00 0.00 0.00 0.00 0.00 0.00 0.00 0.00
0.00 0.00 0.00 0.00 0.00 0.00 0.00 0.00 0.00 0.00 0.00 0.00 0.01 0.00 0.01 0.03 0.04 0.05 0.03 0.01 0.01 0.02 0.01 0.01 0.01 0.00 0.00 0.00 0.00 0.00 0.00 0.00
0.00 0.00 0.00 0.00 0.00 0.00 0.00 0.01 0.00 0.00 0.00 0.00 0.00 0.02 0.00 0.01 0.02 0.02 0.04 0.02 0.01 0.01 0.02 0.02 0.02 0.02 0.02 0.02 0.01 0.01 0.01 0.01
0.00 0.00 0.00 0.00 0.00 0.00 0.00 0.00 0.00 0.00 0.00 0.02 0.06 0.09 0.07 0.02 0.02 0.04 0.08 0.04 0.03 0.05 0.05 0.03 0.02 0.01 0.02 0.05 0.07 0.04 0.01 0.01
0.00 0.00 0.00 0.00 0.00 0.00 0.00 0.00 0.01 0.02 0.11 0.23 0.20 0.16 0.20 0.25 0.10 0.05 0.11 0.06 0.06 0.06 0.06 0.02 0.02 0.03 0.05 0.04 0.01 0.02 0.04 0.06
0.00 0.00 0.00 0.00 0.00 0.01 0.00 0.00 0.00 0.01 0.13 0.25 0.14 0.32 0.53 0.28 0.22 0.20 0.17 0.22 0.21 0.12 0.11 0.07 0.05 0.03 0.02 0.03 0.04 0.04 0.02 0.03
0.00 0.00 0.00 0.00 0.00 0.02 0.01 0.00 0.01 0.01 0.03 0.04 0.04 0.08 0.18 0.23 0.20 0.18 0.28 0.29 0.25 0.18 0.13 0.08 0.04 0.02 0.02 0.01 0.01 0.03 0.07 0.09
0.00 0.00 0.00 0.00 0.00 0.00 0.00 0.00 0.00 0.03 0.18 0.18 0.09 0.14 0.16 0.19 0.18 0.24 0.19 0.16 0.15 0.08 0.05 0.03 0.02 0.02 0.05 0.09 0.15 0.17 0.20 0.21
0.00 0.00 0.00 0.00 0.00 0.00 0.00 0.00 0.03 0.10 0.29 0.31 0.19 0.17 0.18 0.18 0.21 0.18 0.14 0.09 0.06 0.04 0.05 0.09 0.12 0.18 0.26 0.30 0.23 0.19 0.16 0.12
0.00 0.00 0.00 0.00 0.00 0.00 0.00 0.03 0.03 0.04 0.14 0.36 0.21 0.20 0.20 0.17 0.16 0.13 0.10 0.08 0.06 0.05 0.07 0.10 0.15 0.16 0.14 0.12 0.11 0.12 0.13 0.10
0.00 0.00 0.00 0.00 0.00 0.01 0.01 0.03 0.02 0.05 0.12 0.08 0.10 0.12 0.14 0.11 0.09 0.06 0.04 0.03 0.02 0.02 0.03 0.03 0.04 0.07 0.10 0.11 0.13 0.11 0.06 0.02
0.00 0.00 0.00 0.00 0.01 0.01 0.01 0.02 0.05 0.10 0.14 0.12 0.11 0.05 0.02 0.02 0.02 0.01 0.00 0.00 0.00 0.01 0.02 0.04 0.09 0.10 0.10 0.09 0.05 0.02 0.01 0.01
0.00 0.00 0.00 0.00 0.00 0.02 0.05 0.04 0.04 0.04 0.02 0.04 0.02 0.01 0.00 0.00 0.00 0.00 0.00 0.01 0.01 0.01 0.06 0.11 0.11 0.10 0.10 0.07 0.04 0.02 0.01 0.00
0.00 0.00 0.01 0.00 0.02 0.07 0.02 0.01 0.01 0.01 0.01 0.03 0.01 0.00 0.00 0.00 0.00 0.00 0.00 0.01 0.04 0.11 0.16 0.16 0.11 0.06 0.05 0.02 0.01 0.00 0.00 0.00
0.00 0.00 0.01 0.05 0.05 0.01 0.02 0.00 0.00 0.00 0.00 0.00 0.00 0.00 0.00 0.00 0.00 0.00 0.02 0.07 0.16 0.18 0.12 0.04 0.00 0.00 0.00 0.00 0.00 0.00 0.00 0.00

GFSFLT1_prec_precacc12_057.txt.gz
Total_Precipitation_Accumulation
0.00 0.00 0.00 0.00 0.00 0.00 0.00 0.00 0.02 0.04 0.04 0.00 0.00 0.01 0.00 0.02 0.04 0.03 0.07 0.10 0.08 0.07 0.05 0.03 0.04 0.01 0.00 0.00 0.00 0.00 0.00 0.00
0.00 0.00 0.00 0.00 0.00 0.00 0.00 0.00 0.01 0.08 0.02 0.00 0.00 0.00 0.00 0.00 0.03 0.01 0.04 0.07 0.04 0.07 0.09 0.07 0.08 0.00 0.00 0.00 0.00 0.00 0.00 0.00
0.00 0.00 0.00 0.00 0.00 0.00 0.00 0.00 0.01 0.07 0.03 0.00 0.00 0.00 0.00 0.00 0.00 0.02 0.06 0.10 0.04 0.04 0.07 0.04 0.03 0.00 0.00 0.00 0.00 0.00 0.00 0.00
0.00 0.00 0.00 0.00 0.00 0.00 0.00 0.00 0.00 0.03 0.00 0.00 0.00 0.00 0.00 0.00 0.01 0.03 0.04 0.04 0.03 0.00 0.04 0.01 0.00 0.00 0.00 0.00 0.00 0.00 0.00 0.00
0.00 0.00 0.00 0.00 0.00 0.00 0.00 0.00 0.00 0.00 0.00 0.01 0.00 0.00 0.00 0.00 0.00 0.01 0.03 0.05 0.05 0.02 0.01 0.00 0.00 0.00 0.00 0.00 0.00 0.00 0.00 0.00
0.00 0.00 0.00 0.00 0.00 0.00 0.00 0.00 0.00 0.00 0.00 0.00 0.01 0.00 0.00 0.00 0.00 0.03 0.03 0.02 0.03 0.03 0.01 0.03 0.01 0.01 0.01 0.00 0.00 0.00 0.00 0.00
0.00 0.00 0.00 0.00 0.00 0.00 0.00 0.00 0.00 0.00 0.00 0.00 0.02 0.06 0.02 0.01 0.00 0.01 0.04 0.03 0.01 0.04 0.04 0.03 0.04 0.04 0.04 0.03 0.03 0.03 0.04 0.02
0.00 0.00 0.00 0.00 0.00 0.00 0.00 0.00 0.00 0.00 0.00 0.01 0.04 0.10 0.10 0.10 0.03 0.02 0.09 0.06 0.02 0.07 0.14 0.08 0.04 0.07 0.04 0.02 0.02 0.03 0.05 0.02
0.00 0.00 0.00 0.00 0.00 0.00 0.00 0.00 0.00 0.00 0.05 0.19 0.19 0.15 0.19 0.27 0.19 0.07 0.19 0.12 0.08 0.12 0.13 0.21 0.10 0.04 0.03 0.03 0.04 0.06 0.07 0.09
0.00 0.00 0.00 0.00 0.00 0.01 0.00 0.00 0.00 0.00 0.05 0.21 0.13 0.31 0.53 0.25 0.24 0.25 0.28 0.31 0.32 0.28 0.31 0.29 0.21 0.14 0.07 0.05 0.06 0.05 0.03 0.06
0.00 0.00 0.00 0.00 0.00 0.01 0.00 0.01 0.04 0.04 0.04 0.02 0.03 0.06 0.16 0.20 0.15 0.15 0.32 0.45 0.32 0.40 0.39 0.28 0.13 0.04 0.02 0.02 0.02 0.05 0.13 0.19
0.00 0.00 0.00 0.00 0.00 0.00 0.00 0.00 0.07 0.11 0.30 0.31 0.18 0.22 0.17 0.20 0.13 0.24 0.22 0.21 0.34 0.37 0.16 0.05 0.03 0.03 0.05 0.10 0.16 0.20 0.22 0.25
0.00 0.00 0.00 0.00 0.00 0.00 0.00 0.00 0.09 0.23 0.59 0.73 0.38 0.47 0.35 0.28 0.21 0.16 0.20 0.15 0.10 0.07 0.05 0.08 0.11 0.17 0.26 0.30 0.23 0.20 0.19 0.16
0.00 0.00 0.00 0.00 0.01 0.00 0.00 0.08 0.19 0.37 0.51 0.55 0.32 0.39 0.45 0.36 0.28 0.14 0.09 0.09 0.07 0.06 0.07 0.09 0.14 0.16 0.14 0.10 0.12 0.15 0.15 0.10
0.00 0.00 0.00 0.00 0.00 0.00 0.05 0.20 0.20 0.23 0.16 0.15 0.07 0.09 0.26 0.11 0.11 0.10 0.07 0.05 0.04 0.04 0.03 0.03 0.04 0.06 0.08 0.12 0.13 0.12 0.07 0.02
0.00 0.00 0.00 0.00 0.00 0.00 0.01 0.05 0.09 0.17 0.22 0.18 0.15 0.06 0.06 0.05 0.05 0.05 0.03 0.04 0.02 0.02 0.02 0.03 0.04 0.05 0.07 0.07 0.05 0.02 0.01 0.01
0.00 0.00 0.00 0.00 0.00 0.02 0.05 0.05 0.10 0.06 0.03 0.06 0.03 0.01 0.04 0.04 0.05 0.02 0.01 0.01 0.01 0.01 0.01 0.01 0.02 0.04 0.05 0.06 0.04 0.02 0.01 0.00
0.00 0.00 0.01 0.01 0.03 0.07 0.03 0.02 0.02 0.02 0.03 0.05 0.01 0.00 0.02 0.02 0.01 0.00 0.00 0.00 0.00 0.01 0.02 0.04 0.03 0.02 0.04 0.02 0.01 0.00 0.00 0.00
0.00 0.00 0.02 0.08 0.10 0.03 0.02 0.01 0.00 0.01 0.01 0.00 0.02 0.01 0.01 0.00 0.00 0.00 0.00 0.01 0.02 0.02 0.01 0.01 0.00 0.00 0.00 0.00 0.00 0.00 0.00 0.00

GFSFLT1_prec_precacc12_060.txt.gz
Total_Precipitation_Accumulation
0.00 0.00 0.00 0.00 0.00 0.00 0.00 0.01 0.02 0.03 0.04 0.00 0.00 0.01 0.00 0.01 0.04 0.03 0.07 0.09 0.07 0.06 0.05 0.03 0.04 0.05 0.00 0.00 0.00 0.00 0.00 0.00
0.00 0.00 0.00 0.00 0.00 0.00 0.00 0.00 0.01 0.05 0.02 0.00 0.00 0.00 0.00 0.00 0.03 0.01 0.04 0.06 0.04 0.07 0.09 0.07 0.09 0.04 0.01 0.00 0.00 0.00 0.00 0.00
0.00 0.00 0.00 0.00 0.00 0.00 0.00 0.00 0.01 0.06 0.03 0.00 0.00 0.00 0.00 0.00 0.00 0.02 0.06 0.10 0.04 0.04 0.07 0.04 0.03 0.02 0.00 0.00 0.00 0.00 0.00 0.00
0.00 0.00 0.00 0.00 0.00 0.00 0.00 0.00 0.00 0.03 0.00 0.00 0.00 0.00 0.00 0.00 0.00 0.01 0.03 0.04 0.03 0.00 0.04 0.01 0.00 0.00 0.00 0.00 0.00 0.00 0.00 0.00
0.00 0.00 0.00 0.00 0.00 0.00 0.00 0.00 0.00 0.00 0.00 0.01 0.00 0.00 0.00 0.00 0.00 0.00 0.02 0.05 0.05 0.02 0.01 0.01 0.00 0.00 0.00 0.00 0.00 0.00 0.00 0.00
0.00 0.00 0.00 0.00 0.00 0.00 0.00 0.00 0.00 0.00 0.00 0.00 0.01 0.00 0.00 0.00 0.00 0.02 0.02 0.01 0.02 0.03 0.02 0.06 0.02 0.01 0.04 0.04 0.02 0.01 0.00 0.01
0.00 0.00 0.00 0.00 0.00 0.00 0.00 0.00 0.00 0.00 0.00 0.00 0.02 0.05 0.02 0.01 0.00 0.00 0.03 0.02 0.00 0.03 0.04 0.03 0.05 0.04 0.09 0.11 0.08 0.05 0.04 0.03
0.00 0.00 0.00 0.00 0.00 0.00 0.00 0.00 0.00 0.00 0.00 0.00 0.00 0.06 0.07 0.09 0.03 0.01 0.08 0.04 0.01 0.05 0.14 0.11 0.08 0.17 0.17 0.13 0.08 0.06 0.06 0.14
0.00 0.00 0.00 0.00 0.00 0.00 0.00 0.00 0.00 0.00 0.03 0.18 0.14 0.07 0.16 0.27 0.19 0.08 0.18 0.10 0.07 0.10 0.20 0.34 0.28 0.22 0.18 0.14 0.09 0.10 0.10 0.13
0.00 0.00 0.00 0.00 0.00 0.00 0.00 0.00 0.00 0.00 0.03 0.16 0.09 0.21 0.47 0.23 0.23 0.28 0.27 0.28 0.29 0.25 0.33 0.42 0.41 0.34 0.33 0.18 0.11 0.05 0.04 0.07
0.00 0.00 0.00 0.00 0.00 0.00 0.00 0.01 0.05 0.08 0.04 0.01 0.03 0.06 0.15 0.22 0.15 0.23 0.42 0.43 0.29 0.39 0.42 0.42 0.36 0.21 0.13 0.08 0.05 0.04 0.12 0.19
0.00 0.00 0.00 0.00 0.00 0.00 0.00 0.00 0.08 0.15 0.33 0.36 0.19 0.24 0.18 0.34 0.34 0.54 0.45 0.39 0.39 0.47 0.34 0.18 0.08 0.10 0.09 0.08 0.12 0.18 0.21 0.23
0.00 0.00 0.00 0.00 0.00 0.00 0.00 0.00 0.10 0.29 0.84 0.96 0.51 0.64 0.49 0.48 0.59 0.59 0.62 0.43 0.15 0.12 0.14 0.08 0.10 0.17 0.23 0.24 0.18 0.15 0.15 0.17
0.00 0.00 0.00 0.00 0.01 0.00 0.00 0.09 0.24 0.61 0.82 0.81 0.58 0.61 0.56 0.35 0.40 0.30 0.14 0.12 0.11 0.09 0.08 0.10 0.12 0.11 0.07 0.05 0.08 0.13 0.16 0.13
0.00 0.00 0.00 0.00 0.00 0.01 0.05 0.21 0.29 0.55 0.32 0.37 0.26 0.23 0.39 0.16 0.23 0.15 0.09 0.07 0.07 0.07 0.04 0.03 0.02 0.03 0.05 0.07 0.10 0.10 0.06 0.03
0.00 0.00 0.00 0.00 0.00 0.00 0.02 0.04 0.12 0.28 0.27 0.27 0.20 0.12 0.16 0.10 0.15 0.14 0.07 0.06 0.03 0.03 0.03 0.01 0.01 0.03 0.04 0.03 0.01 0.01 0.01 0.01
0.00 0.00 0.00 0.00 0.00 0.01 0.04 0.06 0.15 0.11 0.09 0.12 0.08 0.07 0.10 0.10 0.10 0.07 0.05 0.04 0.03 0.01 0.02 0.02 0.01 0.01 0.02 0.01 0.01 0.00 0.00 0.00
0.00 0.00 0.01 0.01 0.03 0.07 0.03 0.03 0.05 0.05 0.07 0.08 0.04 0.03 0.06 0.06 0.05 0.04 0.02 0.02 0.01 0.02 0.01 0.00 0.00 0.00 0.02 0.01 0.01 0.00 0.00 0.00
0.00 0.00 0.02 0.08 0.10 0.03 0.02 0.01 0.01 0.02 0.02 0.01 0.03 0.02 0.03 0.04 0.04 0.02 0.02 0.01 0.00 0.00 0.00 0.00 0.00 0.00 0.00 0.00 0.00 0.00 0.00 0.00